User: anonymous
Location: Darlington Observatory
(36.4817°N, 105.8156°W)
Time: 11:56:54
(UTC-06:00)
Language:

NOSS 3-3 (A) - Orbit

View from above orbital plane
View from above orbital plane
View from above satellite
View from above satellite

Ground track
Ground track

The orbit data is extracted from the following two-line orbital elements,

1 28537U 05004A   14284.72598459 0.00000000  00000-0  00000-0 0    05
2 28537  63.4307 163.6142 0178000 359.2495   0.7505 13.40661168    09
Epoch (UTC): 11 October 2014 17:25:25
Eccentricity: 0.0178000
inclination: 63.4307°
perigee height: 973 km
apogee height: 1240 km
right ascension of ascending node: 163.6142°
argument of perigee: 359.2495°
revolutions per day: 13.40661168
mean anomaly at epoch: 0.7505°
orbit number at epoch: 0

The dashed part of the orbit path shows where the satellite is in the earth's shadow,  

DLR